Regional Weather Roundup
Issued by NWS

Home | Current Version | Previous Version | Graphics & Text | Print | Product List | Glossary On
Versions: 1 2 3 4 5 6 7 8 9 10 11 12 13 14 15 16 17 18 19 20 21 22 23 24 25 26 27 28 29 30 31 32 33 34 35 36 37 38 39 40 41 42 43 44 45 46 47 48 49 50
000
ASUS43 KBIS 250510
RWRND
NORTH DAKOTA REGIONAL WEATHER ROUNDUP
NATIONAL WEATHER SERVICE EASTERN NORTH DAKOTA/GRAND FORKS ND
1200 AM CDT THU MAY 25 2017

  NOTE: "FAIR" INDICATES FEW OR NO CLOUDS BELOW 12,000 FEET WITH NO
  SIGNIFICANT WEATHER AND/OR OBSTRUCTIONS TO VISIBILITY.

NDZ001>003-009>011-017-250600-
...NORTHWEST NORTH DAKOTA...

CITY           SKY/WX    TMP DP  RH WIND       PRES   REMARKS
WILLISTON      LGT RAIN  55  51  86 S7        29.40F
MINOT          LGT RAIN  59  47  64 SE10      29.41R
MINOT AFB      LGT RAIN  57  48  72 SE13      29.41R
$$

NDZ018>021-031>035-040>046-250600-
...SOUTHWEST NORTH DAKOTA...

CITY           SKY/WX    TMP DP  RH WIND       PRES   REMARKS
BISMARCK       FAIR      60  43  53 SE20G26   29.43R
DICKINSON      CLOUDY    53  48  83 NE6       29.40R
GARRISON         N/A     59  41  51 SE9       29.41R
HETTINGER      CLOUDY    55  46  71 N9        29.38R
$$

NDZ004>008-012>016-024-026-027-054-250600-
...NORTHEAST NORTH DAKOTA...

CITY           SKY/WX    TMP DP  RH WIND       PRES   REMARKS
GRAND FORKS    FAIR      54  43  66 SE12      29.60S
GRAND FORKS AF FAIR      54  42  65 SE13      29.60S
DEVILS LAKE    FAIR      54  44  69 SE18G24   29.55F
$$

NDZ022-023-025-028>030-036>039-047>053-250600-
...SOUTHEAST NORTH DAKOTA...

CITY           SKY/WX    TMP DP  RH WIND       PRES   REMARKS
JAMESTOWN      FAIR      52  44  74 SE22G28   29.52S
FARGO          FAIR      55  42  61 SE14      29.62S
WAHPETON       FAIR      52  43  71 SE14      29.64S
$$



USA.gov is the U.S. government's official web portal to all federal, state and local government web resources and services.